logo
App data

MoonBase Commander

Explore. Strategize. Conquer.In the far future, Mankind has nearly exhausted all of earth’s natural resources. Fragile alliances between nations are tested to their limits as fierce wars ignite across land and space.MoonBase Commander puts you in charge of your own lunar territory in a quest to build the most powerful empire in space.
Store | Hub | SteamDB | Site
Developer: Humongous Entertainment Publisher: Rebellion
Genre: Strategy
Languages: English
Tags: Strategy (34), Turn-Based Strategy (8), Sci-fi (7), Classic (5), Base-Building (5)
Category: Single-player, Multi-player, Steam Trading Cards
Release date: Aug 13, 2002
Price: $5.99
Old userscore: 90% Metascore: 77%
Owners: 20,000 .. 50,000
Followers: 475
Peak concurrent players yesterday: 1
Playtime total: 03:11 (average) 03:11 (median)

Steam Spy is still in beta, so expect major bugs.

Owners data:

Access restricted.

This feature is only available to users with special access rights. Sorry.

If you want to proceed, you need to register or log in first and then back Steam Spy on Patreon. Look for Indie or Pro pledge.

Don't forget to use the same email as on Steam Spy!

Audience in 2 weeks:

Access restricted.

This feature is only available to users with special access rights. Sorry.

If you want to proceed, you need to register or log in first and then back Steam Spy on Patreon. Look for Indie or Pro pledge.

Don't forget to use the same email as on Steam Spy!

Peak daily concurrent players:

CCU data courtesy of SteamDB. Used with permission.

Hourly concurrent players:

Daily Twitch stats:

Hourly Twitch stats:

Followers over time

Access restricted.

This feature is only available to users with special access rights. Sorry.

If you want to proceed, you need to register or log in first and then back Steam Spy on Patreon. Look for Indie or Pro pledge.

Don't forget to use the same email as on Steam Spy!

Views for top 50 videos on YouTube for this game:

YouTube's Terms of Service

The views data is based on top 50 videos uploaded last week. Actual number of views might be more than the number shown.

If the game has commonly used word as its name (like "FEAR" or "Volume") its number of Youtube views might be wrong.

Games similar to this one:

# Game Release date
Price
Score rank
(Userscore / Metascore)
Owners
Players
Playtime (Median)
1 Dungeons - The Dark Lord Sep 27, 2011 $19.99N/A (N/A/72%)100,000 .. 200,0000%00:00 (00:00)
2 Heaven Forest NIGHTS Mar 13, 2017 $0.99N/A (N/A)200,000 .. 500,0000%00:00 (00:00)
3 Supreme Ruler: Cold War Jul 29, 2011 $9.99N/A (N/A/63%)20,000 .. 50,0000%00:00 (00:00)
4 Dungeon Warfare Nov 4, 2015 $9.99N/A (N/A)50,000 .. 100,0000%00:00 (00:00)
5 Swords and Soldiers HD Dec 2, 2010 $9.99N/A (N/A)20,000 .. 50,0000%00:00 (00:00)
6 The Living Dungeon Nov 2, 2015 $9.99N/A (N/A)0 .. 20,0000%00:00 (00:00)
7 APOX Jan 20, 2011 $14.99N/A (N/A/48%)20,000 .. 50,0000%00:00 (00:00)
8 Commander Cool 2 Dec 17, 2015 $2.99N/A (N/A)50,000 .. 100,0000%00:00 (00:00)
9 Delve Deeper Sep 24, 2010 $4.99N/A (N/A)50,000 .. 100,0000%00:00 (00:00)
10 Locoland May 28, 2015 $4.99N/A (N/A)0 .. 20,0000%00:00 (00:00)
11 Fate of the World Feb 28, 2011 $9.99N/A (N/A/70%)50,000 .. 100,0000%00:00 (00:00)
12 Cuban Missile Crisis May 6, 2005 $4.99N/A (N/A)20,000 .. 50,0000%00:00 (00:00)
13 Fantasy Wars Aug 6, 2010 $4.99N/A (N/A/67%)50,000 .. 100,0000%00:00 (00:00)
14 Spirit of War Mar 12, 2015 $9.99N/A (N/A)20,000 .. 50,0000%00:00 (00:00)
15 A.R.E.S.: Extinction Agenda Jan 20, 2011 $4.99N/A (N/A/68%)50,000 .. 100,0000%00:00 (00:00)
16 Interloper May 21, 2015 FreeN/A (N/A/77%)50,000 .. 100,0000%00:00 (00:00)
17 Men of War: Vietnam Sep 8, 2011 $7.99N/A (N/A/68%)200,000 .. 500,0000%00:00 (00:00)
18 King of Dragon Pass Jul 28, 2015 $11.99N/A (N/A)50,000 .. 100,0000%00:00 (00:00)
19 Demolition Inc. Sep 19, 2011 $5.99N/A (N/A)50,000 .. 100,0000%00:00 (00:00)
20 Kick Ass Commandos Nov 17, 2016 $9.99N/A (N/A)20,000 .. 50,0000%00:00 (00:00)
21 Carrier Command: Gaea Mission Sep 28, 2012 $32.99N/A (N/A/60%)200,000 .. 500,0000%00:00 (00:00)
22 Urban Empire Jan 20, 2017 $29.99N/A (N/A/62%)100,000 .. 200,0000%00:00 (00:00)
23 Gatling Gears Aug 30, 2011 $9.99N/A (N/A)20,000 .. 50,0000%00:00 (00:00)
24 Assassin’s Creed Chronicles: India Jan 12, 2016 $9.99N/A (N/A)50,000 .. 100,0000%00:00 (00:00)
25 Star Ruler Sep 20, 2010 $9.99N/A (N/A)100,000 .. 200,0000%00:00 (00:00)
26 Bombshell Jan 29, 2016 $34.99N/A (N/A/43%)20,000 .. 50,0000%00:00 (00:00)
27 Warp Mar 21, 2012 $9.99N/A (N/A)20,000 .. 50,0000%00:00 (00:00)
28 Nightside Apr 2, 2015 $4.99N/A (N/A)20,000 .. 50,0000%00:00 (00:00)
29 Pride of Nations Jun 8, 2011 $19.99N/A (N/A/70%)20,000 .. 50,0000%00:00 (00:00)
30 Trigger Runners Mar 3, 2016 $1.99N/A (N/A)0 .. 20,0000%00:00 (00:00)
31 A Game of Dwarves Oct 23, 2012 $9.99N/A (N/A/60%)100,000 .. 200,0000%00:00 (00:00)
32 Once Bitten, Twice Dead! Jul 7, 2015 $4.99N/A (N/A)20,000 .. 50,0000%00:00 (00:00)
33 Sengoku Sep 15, 2011 $1.99N/A (N/A/70%)100,000 .. 200,0000%00:00 (00:00)
34 Albino Lullaby: Episode 1 Sep 14, 2015 $9.99N/A (N/A)20,000 .. 50,0000%00:00 (00:00)
35 Death's Hangover Jan 20, 2017 $4.99N/A (N/A)50,000 .. 100,0000%00:00 (00:00)
36 Alea Jacta Est Sep 27, 2012 $24.99N/A (N/A)20,000 .. 50,0000%00:00 (00:00)
37 ROD: Revolt Of Defense Aug 12, 2016 $0.99N/A (N/A)20,000 .. 50,0000%00:00 (00:00)
38 Gold Rush! Anniversary Nov 7, 2014 $5.99N/A (N/A)100,000 .. 200,0000%00:00 (00:00)
39 VR Journey Dec 15, 2016 $3.99N/A (N/A)20,000 .. 50,0000%00:00 (00:00)
40 Foresight Nov 28, 2014 $4.99N/A (N/A)20,000 .. 50,0000%00:00 (00:00)
41 Battle Time Sep 29, 2016 $0.99N/A (N/A)50,000 .. 100,0000%00:00 (00:00)
42 Commander: The Great War Nov 12, 2012 $29.99N/A (N/A)20,000 .. 50,0000%00:00 (00:00)
43 Double Dragon IV Jan 30, 2017 $6.99N/A (N/A/50%)20,000 .. 50,0000%00:00 (00:00)
44 A.R.E.S. Extinction Agenda EX Oct 3, 2014 $9.99N/A (N/A)0 .. 20,0000%00:00 (00:00)
45 Grim Seventh Jan 20, 2017 FreeN/A (N/A)0 .. 20,0000%00:00 (00:00)
46 To End All Wars Aug 29, 2014 $39.99N/A (N/A/71%)0 .. 20,0000%00:00 (00:00)
47 Sorcerer King: Rivals Sep 22, 2016 $19.99N/A (N/A)20,000 .. 50,0000%00:00 (00:00)
48 Stonerid Dec 18, 2013 $4.99N/A (N/A)20,000 .. 50,0000%00:00 (00:00)
49 BitMaster Oct 12, 2016 $2.99N/A (N/A)100,000 .. 200,0000%00:00 (00:00)
50 Hell Nov 13, 2014 $29.99N/A (N/A)0 .. 20,0000%00:00 (00:00)
51 Extravaganza Rising Jul 21, 2016 N/AN/A (N/A)20,000 .. 50,0000%00:00 (00:00)
52 Wave of Darkness Nov 5, 2015 $29.99N/A (N/A)20,000 .. 50,0000%00:00 (00:00)
53 Zombo Buster Rising Oct 2, 2016 $1.99N/A (N/A)20,000 .. 50,0000%00:00 (00:00)
54 Legions of Steel Jul 16, 2015 $19.99N/A (N/A/64%)0 .. 20,0000%00:00 (00:00)
55 Bulletstorm: Full Clip Edition Apr 7, 2017 $39.99N/A (N/A/76%)100,000 .. 200,0000%00:00 (00:00)
56 Prophour23 Oct 22, 2014 $9.99N/A (N/A)20,000 .. 50,0000%00:00 (00:00)
57 MinosMaze - The Minotaur's Labyrinth May 1, 2017 $4.99N/A (N/A)0 .. 20,0000%00:00 (00:00)
58 Ys VI: The Ark of Napishtim Apr 28, 2015 $19.99N/A (N/A/76%)50,000 .. 100,0000%00:00 (00:00)
59 Star Project Aug 4, 2016 $3.99N/A (N/A)20,000 .. 50,0000%00:00 (00:00)
60 Hunters Of The Dead Sep 4, 2014 $4.99N/A (N/A)0 .. 20,0000%00:00 (00:00)
61 Toadled Sep 22, 2016 $0.99N/A (N/A)50,000 .. 100,0000%00:00 (00:00)
62 Khet 2.0 Oct 1, 2014 $9.99N/A (N/A)50,000 .. 100,0000%00:00 (00:00)
63 Zombie Camp Jul 31, 2016 N/AN/A (N/A)0 .. 20,0000%00:00 (00:00)
64 Malebolgia May 6, 2015 $12.99N/A (N/A)20,000 .. 50,0000%00:00 (00:00)
65 Romance of the Three Kingdoms Ⅴ with Power Up Kit / 三國志Ⅴ with パワーアップキット Apr 18, 2017 $13.99N/A (N/A)0 .. 20,0000%00:00 (00:00)
66 Zoo Rampage Jul 9, 2014 $3.99N/A (N/A)20,000 .. 50,0000%00:00 (00:00)
67 The Superfluous May 19, 2017 $1.99N/A (N/A)0 .. 20,0000%00:00 (00:00)
68 Platypus II Mar 17, 2007 $6.99N/A (N/A)200,000 .. 500,0000%00:00 (00:00)
69 Interplanetary May 12, 2015 N/AN/A (N/A)100,000 .. 200,0000%00:00 (00:00)
70 Code of Princess Apr 14, 2016 $14.99N/A (N/A/53%)20,000 .. 50,0000%00:00 (00:00)
71 Strategic War in Europe Mar 21, 2014 $14.99N/A (N/A)20,000 .. 50,0000%00:00 (00:00)
72 Klang Sep 22, 2016 $14.99N/A (N/A/71%)0 .. 20,0000%00:00 (00:00)
73 Making History: The Great War Jan 29, 2015 $29.99N/A (N/A)20,000 .. 50,0000%00:00 (00:00)
74 Blue Sheep Mar 31, 2016 $1.99N/A (N/A)0 .. 20,0000%00:00 (00:00)
75 Z Steel Soldiers Aug 1, 2014 $12.99N/A (N/A)50,000 .. 100,0000%00:00 (00:00)
76 Corgi Warlock Dec 3, 2015 $1.99N/A (N/A)20,000 .. 50,0000%00:00 (00:00)
77 Abalone Apr 23, 2014 $6.99N/A (N/A)20,000 .. 50,0000%00:00 (00:00)
78 Knight Adventure Oct 15, 2015 $0.99N/A (N/A)50,000 .. 100,0000%00:00 (00:00)
79 Z Jul 4, 2014 $6.99N/A (N/A)100,000 .. 200,0000%00:00 (00:00)
80 Reverse Crawl Sep 24, 2015 $5.99N/A (N/A)20,000 .. 50,0000%00:00 (00:00)
81 Devil's Dare 悪魔の挑戦 Oct 21, 2014 $12.99N/A (N/A)20,000 .. 50,0000%00:00 (00:00)
82 Run Rabbit Run Mar 31, 2016 $3.99N/A (N/A)0 .. 20,0000%00:00 (00:00)
83 Battle Group 2 Jun 13, 2014 $7.99N/A (N/A)50,000 .. 100,0000%00:00 (00:00)
84 The Juicer Sep 6, 2012 $0.59N/A (N/A)20,000 .. 50,0000%00:00 (00:00)
85 Infinity Runner Jul 14, 2014 $6.99N/A (N/A/56%)0 .. 20,0000%00:00 (00:00)
86 Death by Game Show Jan 22, 2016 $1.99N/A (N/A)20,000 .. 50,0000%00:00 (00:00)
87 Albedo: Eyes from Outer Space Apr 10, 2015 $14.99N/A (N/A/66%)20,000 .. 50,0000%00:00 (00:00)
88 Life in Bunker Feb 25, 2016 $15.99N/A (N/A)20,000 .. 50,0000%00:00 (00:00)
89 Battlepillars Gold Edition Apr 28, 2014 $4.99N/A (N/A)20,000 .. 50,0000%00:00 (00:00)
90 Galaxy Admirals Jan 17, 2017 $1.99N/A (N/A)100,000 .. 200,0000%00:00 (00:00)
91 Panzer Tactics HD May 22, 2014 $9.99N/A (N/A/69%)20,000 .. 50,0000%00:00 (00:00)
92 Sky To Fly: Faster Than Wind Mar 25, 2016 $3.99N/A (N/A)0 .. 20,0000%00:00 (00:00)
93 Ubersoldier II Jul 22, 2008 $1.99N/A (N/A/62%)100,000 .. 200,0000%00:00 (00:00)
94 Codename: Panzers, Phase Two Feb 18, 2016 $14.99N/A (N/A/80%)20,000 .. 50,0000%00:00 (00:00)
95 RIVE: Wreck, Hack, Die, Retry! Sep 13, 2016 $14.99N/A (N/A)200,000 .. 500,0000%00:00 (00:00)
96 The Political Machine 2016 Feb 4, 2016 $9.99N/A (N/A)50,000 .. 100,0000%00:00 (00:00)
97 Disciples Sacred Lands Gold Oct 4, 1999 $7.99N/A (N/A)50,000 .. 100,0000%00:00 (00:00)
98 Hybrid Wars Sep 29, 2016 $6.99N/A (N/A/54%)0 .. 20,0000%00:00 (00:00)
99 Spider: Rite of the Shrouded Moon Aug 6, 2015 $9.99N/A (N/A)20,000 .. 50,0000%00:00 (00:00)
100 Crush Your Enemies Jul 13, 2016 $9.99N/A (N/A/63%)20,000 .. 50,0000%00:00 (00:00)
101 Woolfe - The Red Hood Diaries Mar 17, 2015 $9.99N/A (N/A/55%)100,000 .. 200,0000%00:00 (00:00)
102 Legend (1994) Nov 10, 2015 $4.99N/A (N/A)0 .. 20,0000%00:00 (00:00)
103 Arma Tactics Oct 1, 2013 $8.99N/A (N/A/47%)200,000 .. 500,0000%00:00 (00:00)
104 Apocalypse: Party's Over May 30, 2016 N/AN/A (N/A)20,000 .. 50,0000%00:00 (00:00)
105 Conflict Desert Storm Sep 13, 2002 $6.99N/A (N/A/56%)50,000 .. 100,0000%00:00 (00:00)
106 TASTEE: Lethal Tactics May 10, 2016 $14.99N/A (N/A)20,000 .. 50,0000%00:00 (00:00)
107 Disciples III - Resurrection Oct 11, 2011 $14.99N/A (N/A/63%)100,000 .. 200,0000%00:00 (00:00)
108 Adventure in the Tower of Flight Dec 23, 2015 $4.99N/A (N/A)0 .. 20,0000%00:00 (00:00)
109 Conquest of Elysium 3 Oct 24, 2012 $9.99N/A (N/A)50,000 .. 100,0000%00:00 (00:00)
110 Starchaser: Priestess of the Night Sky Jul 24, 2015 $9.99N/A (N/A)0 .. 20,0000%00:00 (00:00)
111 Impire Feb 14, 2013 $19.99N/A (N/A/45%)100,000 .. 200,0000%00:00 (00:00)
112 Solar Shifter EX Sep 11, 2015 $4.99N/A (N/A)20,000 .. 50,0000%00:00 (00:00)
113 Call of Duty: Black Ops - Mac Edition Sep 27, 2012 N/AN/A (N/A)50,000 .. 100,0000%00:00 (00:00)
114 Below Kryll Sep 7, 2015 $4.99N/A (N/A)0 .. 20,0000%00:00 (00:00)
115 Men of War: Condemned Heroes Apr 12, 2012 $7.99N/A (N/A/57%)100,000 .. 200,0000%00:00 (00:00)
116 Devils & Demons Oct 6, 2015 $9.99N/A (N/A)20,000 .. 50,0000%00:00 (00:00)
117 Painkiller Hell & Damnation Oct 31, 2012 $19.99N/A (N/A/64%)500,000 .. 1,000,0000%00:00 (00:00)
118 Disposable Heroes Mar 22, 2016 $0.79N/A (N/A)20,000 .. 50,0000%00:00 (00:00)
119 Jagged Alliance: Crossfire Aug 24, 2012 $14.99N/A (N/A/63%)100,000 .. 200,0000%00:00 (00:00)
120 AirMech Command Mar 8, 2017 $19.99N/A (N/A)0 .. 20,0000%00:00 (00:00)
121 Zeno Clash 2 Apr 30, 2013 $14.99N/A (N/A)200,000 .. 500,0000%00:00 (00:00)
122 Zombie Zoeds May 20, 2015 $0.99N/A (N/A)200,000 .. 500,0000%00:00 (00:00)
123 Warlock 2: The Exiled Apr 10, 2014 $19.99N/A (N/A/73%)50,000 .. 100,0000%00:00 (00:00)
124 Super Furball May 13, 2014 $3.99N/A (N/A)0 .. 20,0000%00:00 (00:00)
125 Jagged Alliance 2 - Wildfire Mar 8, 2004 $6.99N/A (N/A)500,000 .. 1,000,0000%00:00 (00:00)
126 Skyshine's BEDLAM Sep 16, 2015 $19.99N/A (N/A/67%)50,000 .. 100,0000%00:00 (00:00)
127 Stellar Impact Apr 12, 2012 $9.99N/A (N/A/74%)50,000 .. 100,0000%00:00 (00:00)
128 N2O: Nitrous Oxide Jun 29, 2015 $4.99N/A (N/A)0 .. 20,0000%00:00 (00:00)
129 Gemini Wars Nov 2, 2012 $14.99N/A (N/A/53%)20,000 .. 50,0000%00:00 (00:00)
130 Close Combat - Panthers in the Fog Nov 19, 2012 $39.99N/A (N/A)0 .. 20,0000%00:00 (00:00)
131 Tryst Sep 14, 2012 $14.99N/A (N/A/50%)0 .. 20,0000%00:00 (00:00)
132 Redemption: Saints And Sinners Nov 18, 2016 $0.99N/A (N/A)50,000 .. 100,0000%00:00 (00:00)
133 Eufloria HD Oct 14, 2014 $14.99N/A (N/A)100,000 .. 200,0000%00:00 (00:00)
134 htoL#NiQ: The Firefly Diary May 18, 2016 $9.99N/A (N/A)20,000 .. 50,0000%00:00 (00:00)
135 Check vs Mate Aug 16, 2012 $19.99N/A (N/A/69%)20,000 .. 50,0000%00:00 (00:00)
136 Curse of the Crescent Isle DX Aug 21, 2015 $0.99N/A (N/A)0 .. 20,0000%00:00 (00:00)
137 Defense Zone 3 Ultra HD Dec 14, 2016 $3.99N/A (N/A)20,000 .. 50,0000%00:00 (00:00)
138 Pain Train Jan 11, 2017 $4.99N/A (N/A)50,000 .. 100,0000%00:00 (00:00)
139 7th Legion Jan 1, 1997 $6.99N/A (N/A)0 .. 20,0000%00:00 (00:00)
140 Run or Die Dec 11, 2014 $4.99N/A (N/A)20,000 .. 50,0000%00:00 (00:00)
141 Western 1849 Reloaded Feb 10, 2017 $4.99N/A (N/A)20,000 .. 50,0000%00:00 (00:00)
142 There Came an Echo Feb 24, 2015 $14.99N/A (N/A/58%)20,000 .. 50,0000%00:00 (00:00)
143 The Hive Aug 25, 2016 $14.99N/A (N/A)20,000 .. 50,0000%00:00 (00:00)
144 Civil War: Battle of Petersburg Feb 8, 2017 $0.99N/A (N/A)20,000 .. 50,0000%00:00 (00:00)
145 Deadlings: Rotten Edition Nov 11, 2014 $3.99N/A (N/A)50,000 .. 100,0000%00:00 (00:00)
146 Aegis Oct 6, 2016 $2.99N/A (N/A)0 .. 20,0000%00:00 (00:00)
147 Fallen: A2P Protocol Aug 14, 2015 $9.99N/A (N/A)20,000 .. 50,0000%00:00 (00:00)
148 Castle Werewolf 3D Feb 7, 2017 $3.99N/A (N/A)20,000 .. 50,0000%00:00 (00:00)
149 Magnifico Dec 2, 2014 $4.99N/A (N/A)20,000 .. 50,0000%00:00 (00:00)
150 Lethal VR Nov 8, 2016 $14.99N/A (N/A/66%)0 .. 20,0000%00:00 (00:00)
151 Clash of Puppets Dec 16, 2014 $4.99N/A (N/A)0 .. 20,0000%00:00 (00:00)
152 Defence to death May 11, 2017 $5.99N/A (N/A)20,000 .. 50,0000%00:00 (00:00)
153 Toren May 11, 2015 $9.99N/A (N/A/57%)50,000 .. 100,0000%00:00 (00:00)
154 Mysterium: A Psychic Clue Game Jan 12, 2017 $6.99N/A (N/A)50,000 .. 100,0000%00:00 (00:00)
155 FEIST Jul 23, 2015 $9.99N/A (N/A/65%)20,000 .. 50,0000%00:00 (00:00)
156 Tank Destroyer Mar 9, 2017 $0.99N/A (N/A)50,000 .. 100,0000%00:00 (00:00)
157 Wickland Nov 14, 2014 $0.99N/A (N/A)50,000 .. 100,0000%00:00 (00:00)
158 Child Of Ault Jan 24, 2017 $9.99N/A (N/A)0 .. 20,0000%00:00 (00:00)
159 Near Death Aug 2, 2016 $7.99N/A (N/A/70%)20,000 .. 50,0000%00:00 (00:00)
160 Pain Train 2 Mar 16, 2017 $9.99N/A (N/A)20,000 .. 50,0000%00:00 (00:00)
161 War, the Game Jan 12, 2015 $6.99N/A (N/A/65%)20,000 .. 50,0000%00:00 (00:00)
162 Cemetery Warrior 3 Feb 3, 2017 $0.99N/A (N/A)50,000 .. 100,0000%00:00 (00:00)
163 Ironcast Mar 26, 2015 $14.99N/A (N/A/75%)20,000 .. 50,0000%00:00 (00:00)
164 One Star Apr 17, 2017 $3.99N/A (N/A)20,000 .. 50,0000%00:00 (00:00)
165 Desert Ashes Nov 10, 2014 $4.99N/A (N/A)20,000 .. 50,0000%00:00 (00:00)
166 rooMaze Mar 3, 2017 $1.99N/A (N/A)100,000 .. 200,0000%00:00 (00:00)
167 TRON 2.0 Aug 22, 2003 $9.99N/A (N/A/84%)50,000 .. 100,0000%00:00 (00:00)
168 Shadow Ops: Red Mercury Sep 17, 2004 $6.99N/A (N/A/61%)50,000 .. 100,0000%00:00 (00:00)
169 Into the Void Dec 4, 2015 $1.99N/A (N/A)20,000 .. 50,0000%00:00 (00:00)
170 Perimeter May 21, 2004 $3.99N/A (N/A/77%)20,000 .. 50,0000%00:00 (00:00)
171 Super Helmets on Fire DX Ultra Edition Plus Alpha Feb 15, 2016 FreeN/A (N/A)0 .. 20,0000%00:00 (00:00)
172 Hard Truck Apocalypse: Arcade / Ex Machina: Arcade May 24, 2007 $4.99N/A (N/A)20,000 .. 50,0000%00:00 (00:00)
173 Elite vs. Freedom May 31, 2016 $4.99N/A (N/A)20,000 .. 50,0000%00:00 (00:00)
174 The Campaign Series: Fall Weiss May 30, 2014 $14.99N/A (N/A)20,000 .. 50,0000%00:00 (00:00)
175 Phoning Home Feb 7, 2017 $19.99N/A (N/A/61%)20,000 .. 50,0000%00:00 (00:00)
176 Disney Planes Aug 6, 2013 $19.99N/A (N/A)0 .. 20,0000%00:00 (00:00)
177 The Legend of Dark Witch Dec 1, 2015 $4.99N/A (N/A)20,000 .. 50,0000%00:00 (00:00)
178 Super Chibi Knight Jun 24, 2015 $4.99N/A (N/A)50,000 .. 100,0000%00:00 (00:00)
179 Monster Monpiece Mar 14, 2017 $9.99N/A (N/A)0 .. 20,0000%00:00 (00:00)
180 TY the Tasmanian Tiger 4 Sep 17, 2015 $5.99N/A (N/A)20,000 .. 50,0000%00:00 (00:00)
181 Militia Dec 2, 2015 $5.99N/A (N/A)0 .. 20,0000%00:00 (00:00)
182 Battleplan: American Civil War Jul 4, 2014 $9.99N/A (N/A/66%)100,000 .. 200,0000%00:00 (00:00)
183 Goblin Defenders: Steel‘n’ Wood Aug 21, 2013 $2.99N/A (N/A)20,000 .. 50,0000%00:00 (00:00)
184 8-Bit Commando Jul 27, 2011 $3.99N/A (N/A)50,000 .. 100,0000%00:00 (00:00)
185 Avaris 2: The Return of the Empress Dec 14, 2015 $7.99N/A (N/A)0 .. 20,0000%00:00 (00:00)
186 The Entente Gold Aug 11, 2003 $1.99N/A (N/A)50,000 .. 100,0000%00:00 (00:00)
187 UnSummoning: the Spectral Horde Dec 21, 2015 FreeN/A (N/A)0 .. 20,0000%00:00 (00:00)
188 Rex Rocket Aug 5, 2014 $4.99N/A (N/A)20,000 .. 50,0000%00:00 (00:00)
189 1775: Rebellion Sep 29, 2016 $24.99N/A (N/A)0 .. 20,0000%00:00 (00:00)
190 Enemy Mind Jun 6, 2014 $9.99N/A (N/A)100,000 .. 200,0000%00:00 (00:00)
191 Gurgamoth Feb 16, 2016 $9.99N/A (N/A)20,000 .. 50,0000%00:00 (00:00)
192 Strike Suit Zero: Director's Cut Apr 8, 2014 $19.99N/A (N/A)50,000 .. 100,0000%00:00 (00:00)
193 Megamagic: Wizards of the Neon Age Apr 20, 2016 $2.99N/A (N/A/67%)20,000 .. 50,0000%00:00 (00:00)
194 Avoid - Sensory Overload Apr 8, 2014 $4.99N/A (N/A)20,000 .. 50,0000%00:00 (00:00)
195 Vector Strain Dec 9, 2015 $4.99N/A (N/A)20,000 .. 50,0000%00:00 (00:00)
196 Perimeter: Emperor's Testament Aug 29, 2006 $3.99N/A (N/A/72%)20,000 .. 50,0000%00:00 (00:00)
197 Bubsy Two-Fur Jan 1, 1993 $4.99N/A (N/A)0 .. 20,0000%00:00 (00:00)
198 Zoo Empire Sep 3, 2015 $6.99N/A (N/A/59%)0 .. 20,0000%00:00 (00:00)
199 Kill The Plumber Dec 31, 2015 $4.99N/A (N/A)0 .. 20,0000%00:00 (00:00)
200 Freight Tycoon Inc. Aug 15, 2007 $4.99N/A (N/A)20,000 .. 50,0000%00:00 (00:00)
201 Neon Chrome Apr 28, 2016 $5.99N/A (N/A/74%)200,000 .. 500,0000%00:00 (00:00)
202 7 Grand Steps: What Ancients Begat Jun 7, 2013 $19.99N/A (N/A)100,000 .. 200,0000%00:00 (00:00)
203 Defend The Highlands Nov 6, 2015 $9.99N/A (N/A)100,000 .. 200,0000%00:00 (00:00)
204 Anodyne Mar 22, 2013 $9.99N/A (N/A/75%)100,000 .. 200,0000%00:00 (00:00)
205 Nomad Fleet Apr 19, 2016 $4.99N/A (N/A)20,000 .. 50,0000%00:00 (00:00)
206 Rise of Venice Sep 27, 2013 $19.99N/A (N/A/66%)50,000 .. 100,0000%00:00 (00:00)
207 Superstatic Sep 15, 2015 $4.99N/A (N/A)0 .. 20,0000%00:00 (00:00)
208 Eador: Genesis Aug 7, 2009 $5.99N/A (N/A)50,000 .. 100,0000%00:00 (00:00)
209 Gridberd Sep 7, 2015 $6.99N/A (N/A)200,000 .. 500,0000%00:00 (00:00)
210 Sang-Froid - Tales of Werewolves Apr 5, 2013 FreeN/A (N/A/79%)200,000 .. 500,0000%00:00 (00:00)
211 Pongo May 14, 2015 $0.99N/A (N/A)100,000 .. 200,0000%00:00 (00:00)
212 Horizon Feb 6, 2014 $7.49N/A (N/A/58%)50,000 .. 100,0000%00:00 (00:00)
213 Gnumz: Masters of Defense Dec 21, 2015 $0.49N/A (N/A)100,000 .. 200,0000%00:00 (00:00)
214 Scourge: Outbreak Apr 2, 2014 $5.99N/A (N/A)100,000 .. 200,0000%00:00 (00:00)
215 Crossfire: Dungeons May 21, 2015 $3.99N/A (N/A)0 .. 20,0000%00:00 (00:00)
216 Anomaly 2 May 15, 2013 $14.99N/A (N/A/77%)200,000 .. 500,0000%00:00 (00:00)
217 Spooky Cats Jun 4, 2015 $2.99N/A (N/A)20,000 .. 50,0000%00:00 (00:00)
218 March of the Eagles Feb 18, 2013 $19.99N/A (N/A/71%)50,000 .. 100,0000%00:00 (00:00)
219 Blacksea Odyssey Jun 1, 2016 $9.99N/A (N/A/74%)20,000 .. 50,0000%00:00 (00:00)
220 Battle Worlds: Kronos Nov 4, 2013 $19.99N/A (N/A/71%)20,000 .. 50,0000%00:00 (00:00)
221 Cast of the Seven Godsends - Redux Jul 20, 2015 $9.99N/A (N/A)20,000 .. 50,0000%00:00 (00:00)
222 Retrovirus Jan 31, 2013 $9.99N/A (N/A/70%)20,000 .. 50,0000%00:00 (00:00)
223 Riddled Corpses Jun 2, 2015 $7.99N/A (N/A)20,000 .. 50,0000%00:00 (00:00)
224 Fist Puncher Jun 21, 2013 $9.99N/A (N/A/73%)20,000 .. 50,0000%00:00 (00:00)
225 Weapon of Choice Sep 23, 2015 $4.99N/A (N/A)0 .. 20,0000%00:00 (00:00)
226 Skulls of the Shogun Jul 29, 2013 $9.99N/A (N/A/72%)100,000 .. 200,0000%00:00 (00:00)
227 Templar Battleforce Sep 21, 2015 $9.99N/A (N/A)20,000 .. 50,0000%00:00 (00:00)
228 Citadels Jul 25, 2013 $14.99N/A (N/A/20%)50,000 .. 100,0000%00:00 (00:00)
229 Explosionade Sep 23, 2015 $3.99N/A (N/A)0 .. 20,0000%00:00 (00:00)
230 ShootMania Storm Apr 10, 2013 $19.99N/A (N/A/76%)50,000 .. 100,0000%00:00 (00:00)
231 Jim Power -The Lost Dimension Sep 30, 2015 $4.99N/A (N/A)0 .. 20,0000%00:00 (00:00)
232 Skyward Collapse May 23, 2013 $4.99N/A (N/A/64%)100,000 .. 200,0000%00:00 (00:00)
233 Revolution Under Siege Gold Jul 2, 2015 $24.99N/A (N/A)20,000 .. 50,0000%00:00 (00:00)
234 Armada 2526 Gold Edition Feb 28, 2013 $19.99N/A (N/A/66%)50,000 .. 100,0000%00:00 (00:00)
235 Demons with Shotguns Apr 25, 2016 $9.99N/A (N/A)0 .. 20,0000%00:00 (00:00)
236 Fortified Feb 3, 2016 $14.99N/A (N/A)500,000 .. 1,000,0000%00:00 (00:00)
237 Royal Bounty HD Aug 10, 2015 $2.99N/A (N/A)0 .. 20,0000%00:00 (00:00)
238 Star Traders: 4X Empires Nov 18, 2014 $9.99N/A (N/A)0 .. 20,0000%00:00 (00:00)
239 Frozen Synapse Prime Nov 14, 2014 $24.99N/A (N/A/83%)100,000 .. 200,0000%00:00 (00:00)
240 Gates of Horizon Dec 18, 2014 N/AN/A (N/A)20,000 .. 50,0000%00:00 (00:00)
241 4089: Ghost Within Jan 9, 2015 $5.99N/A (N/A)0 .. 20,0000%00:00 (00:00)
242 ManaCollect Apr 17, 2015 $6.99N/A (N/A)0 .. 20,0000%00:00 (00:00)
243 Robotex Nov 18, 2014 $4.99N/A (N/A)200,000 .. 500,0000%00:00 (00:00)
244 Bet On Soldier Sep 26, 2005 $7.99N/A (N/A)100,000 .. 200,0000%00:00 (00:00)
245 Survivor Squad: Gauntlets Nov 16, 2015 $4.99N/A (N/A)20,000 .. 50,0000%00:00 (00:00)
246 Vietnam ‘65 Mar 5, 2015 $9.99N/A (N/A/81%)20,000 .. 50,0000%00:00 (00:00)
247 PixelJunk Shooter Ultimate Oct 21, 2015 $9.99N/A (N/A)20,000 .. 50,0000%00:00 (00:00)
248 Bloodsports.TV Mar 30, 2015 $9.99N/A (N/A/69%)100,000 .. 200,0000%00:00 (00:00)
249 Battle Fleet 2 Nov 20, 2014 $14.99N/A (N/A)20,000 .. 50,0000%00:00 (00:00)
250 Outcast 1.1 Dec 18, 2014 $5.99N/A (N/A)50,000 .. 100,0000%00:00 (00:00)
251 Kaiju-A-GoGo Apr 23, 2015 $9.99N/A (N/A)50,000 .. 100,0000%00:00 (00:00)
252 Velocity 2X Aug 19, 2015 $19.99N/A (N/A)50,000 .. 100,0000%00:00 (00:00)
253 NOBUNAGA'S AMBITION: Souzou (Traditional Chinese version) Aug 2014 $24.99N/A (N/A)20,000 .. 50,0000%00:00 (00:00)
254 Story Of the Survivor Feb 16, 2016 $4.99N/A (N/A)50,000 .. 100,0000%00:00 (00:00)
255 Neon Shadow Aug 25, 2016 $4.99N/A (N/A)0 .. 20,0000%00:00 (00:00)
256 Chicken Invaders 2 Mar 4, 2016 $3.99N/A (N/A)0 .. 20,0000%00:00 (00:00)
257 Elliot Quest Nov 10, 2014 $9.99N/A (N/A)20,000 .. 50,0000%00:00 (00:00)
258 Pharaoh Rebirth+ Mar 17, 2016 $9.99N/A (N/A)0 .. 20,0000%00:00 (00:00)
259 Aggression: Europe Under Fire May 10, 2007 $9.99N/A (N/A)50,000 .. 100,0000%00:00 (00:00)
260 Fatal Fight Jun 10, 2016 $2.99N/A (N/A)0 .. 20,0000%00:00 (00:00)
261 Spice Road Apr 24, 2014 $19.99N/A (N/A)0 .. 20,0000%00:00 (00:00)
262 Age of Gladiators Feb 25, 2016 $9.99N/A (N/A)50,000 .. 100,0000%00:00 (00:00)
263 Collapse Sep 25, 2008 $19.99N/A (N/A)50,000 .. 100,0000%00:00 (00:00)
264 Marvel: Ultimate Alliance 2 Jul 26, 2016 N/AN/A (N/A)0 .. 20,0000%00:00 (00:00)
265 Merchants of Kaidan Nov 10, 2014 $14.99N/A (N/A)100,000 .. 200,0000%00:00 (00:00)
266 DreamBreak Jul 21, 2016 $6.99N/A (N/A/46%)20,000 .. 50,0000%00:00 (00:00)
267 7,62 High Calibre Aug 24, 2007 $4.99N/A (N/A)50,000 .. 100,0000%00:00 (00:00)
268 A Blind Legend Apr 7, 2016 $6.99N/A (N/A)0 .. 20,0000%00:00 (00:00)
269 Wars and Warriors: Joan of Arc Sep 3, 2015 $1.74N/A (N/A/60%)0 .. 20,0000%00:00 (00:00)
270 Revenge of Roger Rouge Apr 22, 2016 $0.99N/A (N/A)20,000 .. 50,00011.76%03:48 (02:31)
271 The Fall May 30, 2014 $9.99N/A (N/A/76%)200,000 .. 500,0000%00:00 (00:00)
272 Star Realms Mar 8, 2016 FreeN/A (N/A)100,000 .. 200,0000%00:00 (00:00)
273 Olympia Rising Jul 23, 2015 $4.99N/A (N/A)20,000 .. 50,0000%00:00 (00:00)
274 Scapeland Mar 31, 2016 $3.99N/A (N/A)0 .. 20,0000%00:00 (00:00)
275 1849 May 8, 2014 $14.99N/A (N/A)20,000 .. 50,0000%00:00 (00:00)
276 Legends of Callasia Jun 10, 2016 FreeN/A (N/A)50,000 .. 100,0000%00:00 (00:00)
277 Brigade E5: New Jagged Union Oct 17, 2006 $3.99N/A (N/A/41%)0 .. 20,0000%00:00 (00:00)
278 Smell Of Death Jul 4, 2016 $9.99N/A (N/A)0 .. 20,0000%00:00 (00:00)
279 Royal Defense Nov 6, 2014 $4.99N/A (N/A)100,000 .. 200,0000%00:00 (00:00)
280 Control Craft 2 Feb 15, 2016 $2.99N/A (N/A)0 .. 20,0000%00:00 (00:00)
281 Magnetic By Nature Nov 10, 2014 $9.99N/A (N/A)0 .. 20,0000%00:00 (00:00)
282 Envoy Mar 17, 2016 $0.49N/A (N/A)20,000 .. 50,0000%00:00 (00:00)
283 Smugglers 5 Apr 11, 2014 $9.99N/A (N/A)20,000 .. 50,0000%00:00 (00:00)
284 Banzai Escape Feb 29, 2016 $5.99N/A (N/A)20,000 .. 50,0000%00:00 (00:00)
285 Viktor Jun 13, 2014 $7.99N/A (N/A)20,000 .. 50,0000%00:00 (00:00)
286 GIBZ Apr 7, 2017 $7.99N/A (N/A)20,000 .. 50,0000%00:00 (00:00)
287 Chainsaw Warrior Oct 7, 2013 $4.99N/A (N/A)100,000 .. 200,0000%00:00 (00:00)
288 Kidnapped Aug 4, 2015 $2.99N/A (N/A)100,000 .. 200,0000%00:00 (00:00)
289 Advent Rising Aug 9, 2005 $9.99N/A (N/A/70%)50,000 .. 100,0000%00:00 (00:00)
290 Sid Meier’s Ace Patrol Aug 27, 2013 $4.99N/A (N/A)500,000 .. 1,000,0000%00:00 (00:00)
291 BC Kings Sep 15, 2008 $4.99N/A (N/A)20,000 .. 50,0000%00:00 (00:00)
292 Rack N Ruin Sep 1, 2015 $9.99N/A (N/A)0 .. 20,0000%00:00 (00:00)
293 PAC-MAN and the Ghostly Adventures Oct 29, 2013 $19.99N/A (N/A)0 .. 20,0000%00:00 (00:00)
294 E.T. Armies Mar 3, 2016 $14.99N/A (N/A/54%)20,000 .. 50,0000%00:00 (00:00)
295 BloodRayne Sep 9, 2003 $9.99N/A (N/A/65%)50,000 .. 100,0000%00:00 (00:00)
296 VelocityUltra Dec 12, 2013 $9.99N/A (N/A)20,000 .. 50,0000%00:00 (00:00)
297 Port Royale 2 Apr 30, 2004 $4.99N/A (N/A/75%)50,000 .. 100,0000%00:00 (00:00)
298 Valley Aug 24, 2016 $19.99N/A (N/A)200,000 .. 500,0006.45%00:41 (00:19)
299 Bleed Jul 3, 2013 $4.99N/A (N/A)100,000 .. 200,0000%00:00 (00:00)
300 CivCity: Rome Jul 24, 2006 $9.99N/A (N/A/67%)50,000 .. 100,0000%00:00 (00:00)
301 NOBUNAGA'S AMBITION: Sphere of Influence - Ascension / 信長の野望・創造 戦国立志伝 Mar 23, 2016 $59.99N/A (N/A)200,000 .. 500,000100%01:30 (01:30)
302 ENSLAVED: Odyssey to the West Premium Edition Oct 24, 2013 $19.99N/A (N/A/70%)200,000 .. 500,0000%00:00 (00:00)
303 Prison Tycoon 3: Lockdown Aug 1, 2007 $9.99N/A (N/A)20,000 .. 50,0000%00:00 (00:00)
304 ESCHATOS Sep 18, 2015 $14.99N/A (N/A)0 .. 20,0000%00:00 (00:00)
305 Wanderlust Adventures Aug 10, 2015 $9.99N/A (N/A)20,000 .. 50,0000%00:00 (00:00)
306 Civilization IV: Warlords Jul 24, 2006 $4.99N/A (N/A/84%)1,000,000 .. 2,000,0000%00:00 (00:00)
307 Island Defense Jul 23, 2015 $1.99N/A (N/A)50,000 .. 100,0000%00:00 (00:00)
308 Disney Epic Mickey 2: The Power of Two Nov 18, 2012 $19.99N/A (N/A)20,000 .. 50,0000%00:00 (00:00)
309 Hunting Unlimited 2008 Sep 1, 2007 $9.99N/A (N/A)20,000 .. 50,0000%00:00 (00:00)
310 Incandescent Jun 30, 2015 $0.99N/A (N/A)20,000 .. 50,0000%00:00 (00:00)
311 Ittle Dew Jul 23, 2013 $9.99N/A (N/A/67%)100,000 .. 200,0000%00:00 (00:00)
312 Ghost Master Aug 23, 2003 $4.99N/A (N/A/81%)100,000 .. 200,0000%00:00 (00:00)
313 Ground Breakers Jun 15, 2016 $0.99N/A (N/A)0 .. 20,0000%00:00 (00:00)
314 Lords of the Black Sun Sep 12, 2014 $29.99N/A (N/A)20,000 .. 50,0000%00:00 (00:00)
315 Heroes of Might & Magic V: Hammers of Fate Nov 14, 2006 $9.99N/A (N/A/66%)50,000 .. 100,0000%00:00 (00:00)
316 Zombie Killtime Aug 4, 2015 $1.99N/A (N/A)0 .. 20,0000%00:00 (00:00)
317 CastleStorm Jul 29, 2013 $9.99N/A (N/A/73%)100,000 .. 200,0000%00:00 (00:00)
318 Making History: The Calm & the Storm Mar 13, 2007 $4.99N/A (N/A/70%)50,000 .. 100,0000%00:00 (00:00)
319 Tiki Man Jun 5, 2015 $0.98N/A (N/A)50,000 .. 100,0000%00:00 (00:00)
320 Zafehouse: Diaries Sep 6, 2013 $1.99N/A (N/A)50,000 .. 100,0000%00:00 (00:00)
321 Nuclear Dawn Sep 26, 2011 $9.99N/A (N/A/71%)200,000 .. 500,0000%00:00 (00:00)
322 Lost in Paradise Aug 20, 2015 $2.99N/A (N/A)50,000 .. 100,00033.33%00:01 (00:00)
323 Guncraft Aug 9, 2013 $14.99N/A (N/A/73%)100,000 .. 200,0000%00:00 (00:00)
324 Lost Planet: Extreme Condition Jun 26, 2007 $14.99N/A (N/A/66%)200,000 .. 500,0000%00:00 (00:00)
325 Alarameth TD Jun 23, 2015 $4.99N/A (N/A)0 .. 20,0000%00:00 (00:00)
326 Livelock Aug 30, 2016 $9.99N/A (N/A/73%)50,000 .. 100,0000%00:00 (00:00)
327 Hydraulic Empire Jul 31, 2015 $7.99N/A (N/A)0 .. 20,0000%00:00 (00:00)
328 Dangerous Waters Feb 7, 2006 $14.99N/A (N/A/82%)50,000 .. 100,0000%00:00 (00:00)
329 In Verbis Virtus Apr 3, 2015 $19.99N/A (N/A)50,000 .. 100,0000%00:00 (00:00)
330 Warhammer 40,000: Dawn of War – Winter Assault Jan 1, 2006 $12.99N/A (N/A)500,000 .. 1,000,0000%00:00 (00:00)
331 Biodrone Battle Jul 16, 2015 $1.99N/A (N/A)100,000 .. 200,0000%00:00 (00:00)
332 Dark Matter Oct 17, 2013 $9.99N/A (N/A)200,000 .. 500,0000%00:00 (00:00)
333 Dandy: Or a Brief Glimpse Into the Life of the Candy Alchemist Aug 4, 2015 $9.99N/A (N/A)0 .. 20,0000%00:00 (00:00)
334 Act of War: Direct Action Mar 14, 2005 $2.99N/A (N/A/82%)20,000 .. 50,0000%00:00 (00:00)
335 Divinity: Dragon Commander Aug 6, 2013 $39.99N/A (N/A)200,000 .. 500,0000%00:00 (00:00)
336 Supreme Commander Feb 20, 2007 $12.99N/A (N/A/86%)1,000,000 .. 2,000,0002.17%00:02 (00:00)
337 Tcheco in the Castle of Lucio Jun 22, 2015 $0.99N/A (N/A)50,000 .. 100,0000%00:00 (00:00)
338 The Haunted: Hells Reach Oct 24, 2011 $8.99N/A (N/A/51%)50,000 .. 100,0000%00:00 (00:00)
339 Samudai Feb 9, 2015 $0.99N/A (N/A)50,000 .. 100,0000%00:00 (00:00)
340 Majesty Gold HD Mar 23, 2001 $9.99N/A (N/A)100,000 .. 200,0000%00:00 (00:00)
341 Tallowmere Mar 3, 2015 $3.99N/A (N/A)20,000 .. 50,0000%00:00 (00:00)
342 Synonymy Mar 5, 2015 $1.99N/A (N/A)20,000 .. 50,0000%00:00 (00:00)
343 Rocket Knight May 11, 2010 $14.99N/A (N/A/63%)0 .. 20,0000%00:00 (00:00)
344 Caster Mar 19, 2009 $1.99N/A (N/A)200,000 .. 500,0000%00:00 (00:00)
345 Armed with Wings: Rearmed Jun 1, 2017 $9.99N/A (N/A)20,000 .. 50,00020%00:09 (00:03)
346 Starscape Mar 27, 2003 $7.99N/A (N/A)20,000 .. 50,0000%00:00 (00:00)
347 Flywrench Aug 24, 2015 $6.99N/A (N/A)0 .. 20,0000%00:00 (00:00)
348 LEGO Indiana Jones 2: The Adventure Continues Feb 18, 2010 $19.99N/A (N/A/66%)50,000 .. 100,0000%00:00 (00:00)
349 The Tiny Tale 2 Jan 30, 2015 $6.99N/A (N/A)0 .. 20,0000%00:00 (00:00)
350 Tom Clancy's EndWar Feb 25, 2009 $9.99N/A (N/A/68%)100,000 .. 200,0000%00:00 (00:00)
351 Strategy & Tactics: Wargame Collection Apr 22, 2016 $9.99N/A (N/A)50,000 .. 100,0000%00:00 (00:00)
352 Disciples III - Renaissance Steam Special Edition Jul 16, 2010 $14.99N/A (N/A/56%)200,000 .. 500,0000%00:00 (00:00)
353 Stay Dead Evolution Feb 4, 2015 $5.99N/A (N/A)20,000 .. 50,0000%00:00 (00:00)
354 Spectromancer Oct 15, 2008 $9.99N/A (N/A)20,000 .. 50,0000%00:00 (00:00)
355 Urja Jan 9, 2015 $9.99N/A (N/A)20,000 .. 50,0000%00:00 (00:00)
356 Chaser Aug 22, 2003 $4.99N/A (N/A/66%)100,000 .. 200,0000%00:00 (00:00)
357 Super Cyborg Jul 8, 2015 $4.99N/A (N/A)20,000 .. 50,0000%00:00 (00:00)
358 Earth Defense Force: Insect Armageddon Dec 14, 2011 $9.99N/A (N/A/69%)50,000 .. 100,0000%00:00 (00:00)
359 Death Ray Manta SE Sep 17, 2015 $1.99N/A (N/A)20,000 .. 50,0000%00:00 (00:00)
360 Rush for Berlin Gold Oct 29, 2009 $4.99N/A (N/A/76%)20,000 .. 50,0000%00:00 (00:00)
361 Dustoff Heli Rescue Mar 6, 2015 $3.99N/A (N/A)20,000 .. 50,0000%00:00 (00:00)
362 King Arthur - The Role-playing Wargame Nov 24, 2009 $9.99N/A (N/A)200,000 .. 500,0000%00:00 (00:00)
363 RESCUE 2: Everyday Heroes Jun 3, 2015 $24.99N/A (N/A)20,000 .. 50,0000%00:00 (00:00)
364 The Kings' Crusade Oct 8, 2010 $9.99N/A (N/A/71%)50,000 .. 100,0000%00:00 (00:00)
365 HitBox Jan 30, 2017 FreeN/A (N/A)20,000 .. 50,0000%00:00 (00:00)
366 Elven Legacy Apr 7, 2009 $4.99N/A (N/A/71%)100,000 .. 200,0000%00:00 (00:00)
367 Headlander Jul 25, 2016 $19.99N/A (N/A/74%)100,000 .. 200,0000%00:00 (00:00)
368 Sword of the Stars II: Enhanced Edition Nov 30, 2012 $19.99N/A (N/A/65%)100,000 .. 200,0000%00:00 (00:00)
369 Lux Delux May 1, 2015 $9.99N/A (N/A)50,000 .. 100,0000%00:00 (00:00)
370 Supreme Ruler 2020 Gold Jun 17, 2008 $9.99N/A (N/A/65%)50,000 .. 100,0000%00:00 (00:00)
371 Shadows of War Jan 2, 2015 $2.99N/A (N/A)20,000 .. 50,0000%00:00 (00:00)
372 Rooks Keep Dec 5, 2014 $7.99N/A (N/A)0 .. 20,0000%00:00 (00:00)
373 Link Apr 22, 2016 $4.99N/A (N/A)0 .. 20,0000%00:00 (00:00)
374 Blue Estate The Game Apr 8, 2015 $12.99N/A (N/A/59%)50,000 .. 100,0000%00:00 (00:00)
375 She Wants Me Dead May 13, 2016 $7.99N/A (N/A)20,000 .. 50,0000%00:00 (00:00)
376 The Few Jun 18, 2014 $7.99N/A (N/A)50,000 .. 100,0000%00:00 (00:00)
377 Magic Quest May 6, 2016 $1.99N/A (N/A)50,000 .. 100,0000%00:00 (00:00)
378 Zombies on a Plane Mar 25, 2016 $4.99N/A (N/A)20,000 .. 50,0000%00:00 (00:00)
379 Rocketbirds 2 Evolution Jan 26, 2017 $9.99N/A (N/A)20,000 .. 50,0000%00:00 (00:00)
380 Psichodelya Aug 8, 2014 $1.99N/A (N/A)50,000 .. 100,0000%00:00 (00:00)
381 Amaranthine Apr 6, 2016 $2.99N/A (N/A)0 .. 20,0000%00:00 (00:00)
382 Warrior Kings Apr 13, 2002 $9.99N/A (N/A/73%)20,000 .. 50,0000%00:00 (00:00)
383 Assault on Arnhem Mar 11, 2016 $9.99N/A (N/A)0 .. 20,0000%00:00 (00:00)
384 Disney Pirates of the Caribbean: At Worlds End May 22, 2007 $19.99N/A (N/A)0 .. 20,0000%00:00 (00:00)
385 Odd||Even Apr 6, 2016 $0.99N/A (N/A)20,000 .. 50,0000%00:00 (00:00)
386 Overruled! Sep 15, 2015 $12.99N/A (N/A)20,000 .. 50,0000%00:00 (00:00)
387 Ace of Seafood Apr 8, 2016 $3.59N/A (N/A)0 .. 20,0000%00:00 (00:00)
388 Momodora III Jul 1, 2014 $1.99N/A (N/A)50,000 .. 100,0000%00:00 (00:00)
389 Defend Your Crypt Jul 21, 2016 $2.99N/A (N/A)0 .. 20,0000%00:00 (00:00)
390 Space Colony: Steam Edition Apr 30, 2015 $14.99N/A (N/A/74%)100,000 .. 200,0000%00:00 (00:00)
391 Meridian: Squad 22 Aug 11, 2016 $14.99N/A (N/A)0 .. 20,0000%00:00 (00:00)
392 Bloodbath Jun 16, 2014 $14.99N/A (N/A)0 .. 20,0000%00:00 (00:00)
393 Audio Arena Jul 25, 2016 $6.99N/A (N/A)0 .. 20,0000%00:00 (00:00)
394 Knightmare Tower Jun 16, 2014 $3.99N/A (N/A)0 .. 20,0000%00:00 (00:00)
395 Mad Bullets Jun 10, 2016 $2.99N/A (N/A)0 .. 20,0000%00:00 (00:00)
396 Kick-Ass 2 Aug 15, 2014 $19.99N/A (N/A)20,000 .. 50,0000%00:00 (00:00)
397 Auro: A Monster-Bumping Adventure Apr 13, 2016 $6.99N/A (N/A)0 .. 20,0000%00:00 (00:00)
398 Victory At Sea Aug 8, 2014 $24.99N/A (N/A)50,000 .. 100,0000%00:00 (00:00)
399 TableTop Soccer Apr 22, 2016 $0.99N/A (N/A)0 .. 20,0000%00:00 (00:00)
400 Aeon Command Jul 3, 2014 $2.99N/A (N/A)20,000 .. 50,0000%00:00 (00:00)
401 Codex of Victory Mar 16, 2017 $14.99N/A (N/A)20,000 .. 50,0000%00:00 (00:00)
402 Orbital Gear Aug 7, 2014 $9.99N/A (N/A/59%)200,000 .. 500,0000%00:00 (00:00)
403 Blasting Agent: Ultimate Edition Aug 17, 2016 $2.99N/A (N/A)0 .. 20,0000%00:00 (00:00)
404 Sky Gamblers: Storm Raiders Jan 7, 2015 $9.99N/A (N/A)0 .. 20,0000%00:00 (00:00)
405 Adventure World Aug 2, 2016 $4.99N/A (N/A)0 .. 20,0000%00:00 (00:00)
406 Infection: Humanity's Last Gasp May 26, 2016 $9.99N/A (N/A)0 .. 20,0000%00:00 (00:00)
407 Unearthed: Trail of Ibn Battuta - Episode 1 - Gold Edition Jan 3, 2014 $4.99N/A (N/A)20,000 .. 50,0000%00:00 (00:00)
408 Mold on Pizza Sep 25, 2015 $5.99N/A (N/A)20,000 .. 50,0000%00:00 (00:00)
409 Silent Storm Gold Edition Sep 9, 2004 $9.99N/A (N/A/83%)200,000 .. 500,0000%00:00 (00:00)
410 Pharaonic Apr 28, 2016 $14.99N/A (N/A)20,000 .. 50,0000%00:00 (00:00)
411 Stick it to The Man! Dec 13, 2013 $7.99N/A (N/A/83%)20,000 .. 50,0000%00:00 (00:00)
412 Ninjahtic Mind Tricks Jul 16, 2015 $1.99N/A (N/A)0 .. 20,0000%00:00 (00:00)
413 PixelJunk Shooter Nov 11, 2013 $8.99N/A (N/A/73%)100,000 .. 200,0000%00:00 (00:00)
414 After The End: The Harvest Jun 2, 2017 $3.24N/A (N/A)20,000 .. 50,0000%00:00 (00:00)
415 Master Reboot Oct 29, 2013 $14.99N/A (N/A/59%)50,000 .. 100,0000%00:00 (00:00)
416 Cross of the Dutchman Sep 10, 2015 $8.99N/A (N/A/59%)20,000 .. 50,0000%00:00 (00:00)
417 Jagged Alliance Flashback Oct 21, 2014 $19.99N/A (N/A)50,000 .. 100,0000%00:00 (00:00)
418 Vampire of the Sands Jul 17, 2015 $4.99N/A (N/A)20,000 .. 50,0000%00:00 (00:00)
419 Anomaly Warzone Earth Mobile Campaign Nov 6, 2013 $4.99N/A (N/A)100,000 .. 200,0000%00:00 (00:00)
420 Zombie Party Jun 10, 2016 $9.99N/A (N/A)100,000 .. 200,0000%00:00 (00:00)
421 Tank Operations: European Campaign Nov 22, 2013 N/AN/A (N/A)20,000 .. 50,0000%00:00 (00:00)
422 Vendetta - Curse of Raven's Cry Nov 20, 2015 $29.99N/A (N/A)500,000 .. 1,000,0000%00:00 (00:00)
423 YAIBA: NINJA GAIDEN Z Mar 21, 2014 $29.99N/A (N/A/49%)20,000 .. 50,0000%00:00 (00:00)
424 Umihara Kawase Shun Nov 24, 2015 $11.99N/A (N/A)0 .. 20,0000%00:00 (00:00)
425 Distant Worlds: Universe May 23, 2014 $59.99N/A (N/A/81%)50,000 .. 100,0000%00:00 (00:00)
426 Rise: Battle Lines Nov 17, 2015 N/AN/A (N/A)0 .. 20,0000%00:00 (00:00)
427 Zombie Tycoon 2: Brainhov's Revenge Dec 9, 2013 $4.99N/A (N/A)50,000 .. 100,0000%00:00 (00:00)
428 Dead But Alive! Southern England Oct 2, 2015 $14.99N/A (N/A)0 .. 20,0000%00:00 (00:00)
429 Bedlam Oct 13, 2015 $12.99N/A (N/A/54%)100,000 .. 200,0000%00:00 (00:00)
430 Cashtronauts Aug 31, 2016 $2.99N/A (N/A)0 .. 20,0000%00:00 (00:00)
431 Dusty Revenge:Co-Op Edition Feb 17, 2014 $14.99N/A (N/A)100,000 .. 200,0000%00:00 (00:00)
432 Ninjahtic Jul 6, 2015 $1.99N/A (N/A)0 .. 20,0000%00:00 (00:00)
433 Last Knight: Rogue Rider Edition Oct 3, 2014 $7.99N/A (N/A)20,000 .. 50,0000%00:00 (00:00)
434 FIVE: Guardians of David Nov 24, 2015 $9.99N/A (N/A/66%)20,000 .. 50,0000%00:00 (00:00)
435 McDROID Sep 5, 2014 $18.99N/A (N/A)0 .. 20,0000%00:00 (00:00)
436 Heavy Fire: Shattered Spear Oct 23, 2015 $3.99N/A (N/A)0 .. 20,0000%00:00 (00:00)
437 Pixel Boy and the Ever Expanding Dungeon May 30, 2014 $0.99N/A (N/A)20,000 .. 50,0000%00:00 (00:00)
438 Steel Rain Dec 3, 2015 $9.99N/A (N/A)20,000 .. 50,0000%00:00 (00:00)
439 Hot Tin Roof: The Cat That Wore A Fedora Feb 20, 2015 $14.99N/A (N/A/66%)100,000 .. 200,0000%00:00 (00:00)
440 Fort Meow Jun 24, 2015 $7.99N/A (N/A)20,000 .. 50,0000%00:00 (00:00)
441 Commander: Conquest of the Americas Jul 30, 2010 $9.99N/A (N/A/68%)50,000 .. 100,0000%00:00 (00:00)
442 Hyperspace Pinball Sep 30, 2015 $2.99N/A (N/A)0 .. 20,0000%00:00 (00:00)
443 Dead Rising 2: Off the Record Oct 11, 2011 $19.99N/A (N/A/66%)200,000 .. 500,0000%00:00 (00:00)
444 Fair Strike Feb 5, 2004 $3.99N/A (N/A/56%)0 .. 20,0000%00:00 (00:00)
445 Atom Zombie Smasher Mar 14, 2011 $4.99N/A (N/A/75%)200,000 .. 500,0000%00:00 (00:00)
446 PeriAreion Feb 19, 2015 $5.99N/A (N/A)0 .. 20,0000%00:00 (00:00)
447 Star Wolves 3: Civil War Mar 2, 2010 $4.99N/A (N/A)100,000 .. 200,0000%00:00 (00:00)
448 Tiamat X May 29, 2015 $1.99N/A (N/A)50,000 .. 100,0000%00:00 (00:00)
449 Patrician IV - Steam Special Edition Sep 17, 2010 $14.99N/A (N/A/66%)100,000 .. 200,0000%00:00 (00:00)
450 Burstfire Sep 24, 2015 N/AN/A (N/A)50,000 .. 100,0000%00:00 (00:00)
451 Theatre of War 2: Africa 1943 Apr 24, 2009 $4.99N/A (N/A/63%)100,000 .. 200,0000%00:00 (00:00)
452 CRYPTARK Jun 20, 2017 $14.99N/A (N/A/80%)100,000 .. 200,0000%00:00 (00:00)
453 Dungeons Feb 10, 2011 $9.99N/A (N/A/65%)200,000 .. 500,0000%00:00 (00:00)
454 Supercharged Robot VULKAISER Jun 4, 2015 $2.49N/A (N/A)20,000 .. 50,00033.33%01:52 (00:56)
455 Theatre of War 2: Kursk 1943 Mar 9, 2010 $4.99N/A (N/A)50,000 .. 100,0000%00:00 (00:00)
456 Gratuitous Space Battles 2 Apr 16, 2015 $9.99N/A (N/A)20,000 .. 50,0000%00:00 (00:00)
457 A Game of Thrones - Genesis Sep 29, 2011 $9.99N/A (N/A)100,000 .. 200,0000%00:00 (00:00)
458 No Pineapple Left Behind Feb 18, 2016 $6.99N/A (N/A/59%)0 .. 20,0000%00:00 (00:00)
459 Making History II: The War of the World Jun 22, 2010 $14.99N/A (N/A/38%)50,000 .. 100,0000%00:00 (00:00)
460 David. Mar 14, 2014 $1.99N/A (N/A)50,000 .. 100,0000%00:00 (00:00)
461 Power of Defense Aug 4, 2010 $9.99N/A (N/A)0 .. 20,0000%00:00 (00:00)
462 Planet of the Eyes Aug 24, 2015 $9.99N/A (N/A/66%)50,000 .. 100,0000%00:00 (00:00)
463 Armada 2526 Jun 10, 2010 $14.99N/A (N/A/66%)0 .. 20,0000%00:00 (00:00)
464 The Bluecoats: North vs South Feb 2, 2015 $4.99N/A (N/A)50,000 .. 100,0000%00:00 (00:00)
465 Age of Wonders Oct 2010 $5.99N/A (N/A)100,000 .. 200,0000%00:00 (00:00)
466 Ceres Oct 16, 2015 $19.99N/A (N/A/74%)20,000 .. 50,0000%00:00 (00:00)
467 RISK: Factions Mar 8, 2011 $9.99N/A (N/A/77%)100,000 .. 200,0000%00:00 (00:00)
468 Rise & Shine Jan 13, 2017 $14.99N/A (N/A)50,000 .. 100,0000%00:00 (00:00)
469 Age of Wonders Shadow Magic Oct 2010 $9.99N/A (N/A/82%)100,000 .. 200,0000%00:00 (00:00)
470 Cultures - 8th Wonder of the World Mar 26, 2015 $4.99N/A (N/A)100,000 .. 200,0000%00:00 (00:00)
471 Greed Corp Dec 10, 2010 $9.99N/A (N/A/76%)200,000 .. 500,0000%00:00 (00:00)
472 The Asskickers-Steam Edition Feb 6, 2015 $9.99N/A (N/A)0 .. 20,0000%00:00 (00:00)
473 Monday Night Combat Jan 24, 2011 $4.99N/A (N/A/82%)200,000 .. 500,0000%00:00 (00:00)
474 Gold Rush! Classic Dec 23, 1988 $2.99N/A (N/A)200,000 .. 500,0002.22%00:01 (00:00)
475 Syrian Warfare Feb 21, 2017 $13.99N/A (N/A)200,000 .. 500,0000%00:00 (00:00)
476 Spirits of Xanadu Mar 26, 2015 $4.99N/A (N/A)50,000 .. 100,0000%00:00 (00:00)
477 Ranger of the jungle Jul 18, 2016 $3.99N/A (N/A)0 .. 20,0000%00:00 (00:00)
478 Airship Dragoon Aug 26, 2014 $19.99N/A (N/A)0 .. 20,0000%00:00 (00:00)
479 Beasts Battle Jun 15, 2016 $1.99N/A (N/A)20,000 .. 50,0000%00:00 (00:00)
480 World War 2: Time of Wrath Jun 15, 2009 $4.99N/A (N/A)20,000 .. 50,0000%00:00 (00:00)
481 Woodle Tree 2: Worlds Sep 16, 2016 $1.59N/A (N/A)50,000 .. 100,0000%00:00 (00:00)
482 The Nightmare Cooperative Jul 16, 2014 $4.99N/A (N/A)50,000 .. 100,0000%00:00 (00:00)
483 Mr. Shifty Apr 13, 2017 $14.99N/A (N/A)100,000 .. 200,0000%00:00 (00:00)
484 Heavy Fire: Afghanistan Aug 15, 2014 $2.99N/A (N/A)50,000 .. 100,0000%00:00 (00:00)
485 Urban Pirate Jun 17, 2016 $6.99N/A (N/A)0 .. 20,0000%00:00 (00:00)
486 The Way May 20, 2016 $1.49N/A (N/A/67%)100,000 .. 200,0000%00:00 (00:00)
487 Quarantine May 24, 2017 $9.99N/A (N/A)0 .. 20,0000%00:00 (00:00)
488 Civil War II Sep 17, 2013 $39.99N/A (N/A)20,000 .. 50,0000%00:00 (00:00)
489 Purgatory Jun 22, 2016 $0.99N/A (N/A)100,000 .. 200,0000%00:00 (00:00)
490 Rulers of Nations Jul 16, 2014 $19.99N/A (N/A/63%)20,000 .. 50,0000%00:00 (00:00)
491 Weird Hero Nov 18, 2016 $3.99N/A (N/A)0 .. 20,0000%00:00 (00:00)
492 Battle Academy 2: Eastern Front Sep 12, 2014 $39.99N/A (N/A/78%)0 .. 20,0000%00:00 (00:00)
493 Slash or Die Jun 3, 2016 $2.99N/A (N/A)20,000 .. 50,0000%00:00 (00:00)
494 Battle Mages: Sign of Darkness Apr 13, 2006 $4.99N/A (N/A)20,000 .. 50,0000%00:00 (00:00)
495 Crazy Forest Jul 6, 2016 $4.99N/A (N/A)100,000 .. 200,0000%00:00 (00:00)
496 Will Fight for Food: Super Actual Sellout: Game of the Hour Apr 22, 2015 $4.99N/A (N/A)20,000 .. 50,0000%00:00 (00:00)
497 VRZ: Torment May 18, 2017 $4.99N/A (N/A)0 .. 20,0000%00:00 (00:00)
498 The Stalin Subway: Red Veil Oct 5, 2006 $2.99N/A (N/A)50,000 .. 100,0000%00:00 (00:00)
499 Zombie Apocalypse: Escape The Undead City Jun 17, 2016 $2.99N/A (N/A)0 .. 20,0000%00:00 (00:00)
500 Nux Dec 26, 2006 $6.99N/A (N/A)100,000 .. 200,0000%00:00 (00:00)
501 Mad Combat Marines Jul 13, 2016 $0.99N/A (N/A)50,000 .. 100,0000%00:00 (00:00)
502 The Stalin Subway Oct 5, 2006 $3.99N/A (N/A)20,000 .. 50,0000%00:00 (00:00)
503 FIVE: Champions of Canaan Sep 27, 2016 $3.99N/A (N/A)20,000 .. 50,0000%00:00 (00:00)
504 Othello Aug 5, 2016 N/AN/A (N/A)20,000 .. 50,0000%00:00 (00:00)
505 Smithy Jun 3, 2016 $3.99N/A (N/A)20,000 .. 50,0000%00:00 (00:00)
506 Super Trench Attack! Jul 24, 2014 $4.99N/A (N/A)100,000 .. 200,0000%00:00 (00:00)
507 Ballistic Tanks Sep 20, 2016 $4.99N/A (N/A)0 .. 20,0000%00:00 (00:00)
508 WARSHIFT Oct 12, 2016 $9.99N/A (N/A)20,000 .. 50,00033.33%01:03 (00:21)
509 Graviteam Tactics: Operation Star Mar 22, 2012 $29.99N/A (N/A)50,000 .. 100,0000%00:00 (00:00)
510 Quick Slick Deadly Sep 21, 2015 $0.99N/A (N/A)20,000 .. 50,0000%00:00 (00:00)
511 Gun Metal Sep 23, 2003 $2.99N/A (N/A)200,000 .. 500,0000%00:00 (00:00)
512 Sir! I'd Like To Report A Bug! Oct 19, 2015 $1.99N/A (N/A)0 .. 20,0000%00:00 (00:00)
513 SPACECOM Sep 17, 2014 $9.99N/A (N/A/68%)100,000 .. 200,0000%00:00 (00:00)
514 The Seven Years War (1756-1763) Oct 30, 2015 $19.99N/A (N/A)20,000 .. 50,0000%00:00 (00:00)
515 Antisquad Oct 31, 2014 $5.99N/A (N/A)50,000 .. 100,0000%00:00 (00:00)
516 Square Brawl Oct 22, 2015 $4.99N/A (N/A)0 .. 20,0000%00:00 (00:00)
517 Wyv and Keep: The Temple of the Lost Idol Aug 8, 2014 $14.99N/A (N/A)20,000 .. 50,0000%00:00 (00:00)
518 Tic-Toc-Tower Sep 28, 2015 $2.99N/A (N/A)0 .. 20,0000%00:00 (00:00)
519 Meltdown Jun 5, 2014 $6.99N/A (N/A)100,000 .. 200,0000%00:00 (00:00)
520 Miracle Fly Oct 26, 2015 $7.99N/A (N/A)20,000 .. 50,0000%00:00 (00:00)
521 Guns n Zombies Oct 30, 2014 $7.99N/A (N/A)100,000 .. 200,0000%00:00 (00:00)
522 Rubber and Lead Sep 4, 2015 $4.99N/A (N/A)50,000 .. 100,0000%00:00 (00:00)
523 Time Rifters Oct 21, 2014 $9.99N/A (N/A)0 .. 20,0000%00:00 (00:00)
524 Space Food Truck Mar 25, 2016 $9.99N/A (N/A)20,000 .. 50,0000%00:00 (00:00)
525 Major Mayhem Feb 24, 2014 $4.99N/A (N/A)20,000 .. 50,0000%00:00 (00:00)
526 Little King's Story Aug 5, 2016 $14.99N/A (N/A/62%)0 .. 20,0000%00:00 (00:00)
527 Ku: Shroud of the Morrigan Mar 17, 2014 $4.99N/A (N/A)20,000 .. 50,0000%00:00 (00:00)
528 Arcane Sorcery Sep 15, 2015 FreeN/A (N/A)20,000 .. 50,0000%00:00 (00:00)
529 Platformines Mar 28, 2014 $9.99N/A (N/A/67%)100,000 .. 200,0000%00:00 (00:00)
530 Sim Junta Aug 18, 2015 $1.99N/A (N/A)0 .. 20,0000%00:00 (00:00)
531 Shadow Blade: Reload Aug 10, 2015 $9.99N/A (N/A/70%)20,000 .. 50,0000%00:00 (00:00)
532 Little Big Adventure 2 Oct 20, 2015 $3.99N/A (N/A)20,000 .. 50,0000%00:00 (00:00)
533 Deadly 30 Jan 8, 2014 $4.99N/A (N/A)100,000 .. 200,0000%00:00 (00:00)
534 TRON RUN/r Feb 16, 2016 $19.99N/A (N/A)0 .. 20,0000%00:00 (00:00)
535 The Last Federation Apr 18, 2014 $19.99N/A (N/A/72%)50,000 .. 100,0000%00:00 (00:00)
536 Protoshift Jan 15, 2016 $0.99N/A (N/A)0 .. 20,0000%00:00 (00:00)
537 Meridian: New World Apr 4, 2014 $6.99N/A (N/A/43%)100,000 .. 200,0000%00:00 (00:00)
538 Toy Odyssey: The Lost and Found Sep 20, 2016 $14.99N/A (N/A/66%)20,000 .. 50,0000%00:00 (00:00)
539 Mechs & Mercs: Black Talons Jan 9, 2015 $9.99N/A (N/A)20,000 .. 50,0000%00:00 (00:00)
540 Ace of Protectors Jun 27, 2016 $1.99N/A (N/A)20,000 .. 50,0000%00:00 (00:00)
541 Ground Pounders Jul 15, 2014 $4.99N/A (N/A)0 .. 20,0000%00:00 (00:00)

Tags over time:

Access restricted.

This feature is only available to users with special access rights. Sorry.

If you want to proceed, you need to register or log in first and then back Steam Spy on Patreon. Look for Indie or Pro pledge.

Don't forget to use the same email as on Steam Spy!

Owners of this game also own:

Access restricted.

This feature is only available to users with special access rights. Sorry.

If you want to proceed, you need to register or log in first and then back Steam Spy on Patreon. Look for Indie or Pro pledge.

Don't forget to use the same email as on Steam Spy!

Playtime distribution:

Access restricted.

This feature is only available to users with special access rights. Sorry.

If you want to proceed, you need to register or log in first and then back Steam Spy on Patreon. Look for Indie or Pro pledge.

Don't forget to use the same email as on Steam Spy!

Playtime (2 weeks):

Access restricted.

This feature is only available to users with special access rights. Sorry.

If you want to proceed, you need to register or log in first and then back Steam Spy on Patreon. Look for Indie or Pro pledge.

Don't forget to use the same email as on Steam Spy!

User reviews:

Login required.

Please register or log in to see this information.